Hourly Data Report for September 21, 2017

All times are specified in Local Standard Time (LST). Add 1 hour to adjust for Daylight Saving Time where and when it is observed.

MISCOU ISLAND (AUT)
NEW BRUNSWICK

48°00'32.002" N
64°29'39.008" W
4.00 m
8103050
71719
WMI

Download Data

Hourly Data (September 2017)
Hourly Data Report for September 21, 2017
Temp Definition
°C
Dew Point Temp Definition
°C
Rel Hum Definition
%
Wind Dir Definition
10's deg

Wind Spd Definition
km/h
Visibility Definition
km
Stn Press Definition
kPa
Hmdx Definition


Wind Chill Definition


Weather Definition


TIME
00:00 13.8 11.3 85 32 17   101.82     LegendNANA
01:00 14.0 10.8 81 33 20   101.89     LegendNANA
02:00 13.6 10.3 81 32 16   101.90     LegendNANA
03:00 13.4 10.3 82 34 19   101.94     LegendNANA
04:00 13.1 10.3 83 35 16   102.00     LegendNANA
05:00 12.9 9.9 82 35 16   102.04     LegendNANA
06:00 12.8 9.7 82 36 19   102.09     LegendNANA
07:00 13.1 9.6 79 36 23   102.15     LegendNANA
08:00 13.6 9.2 75 1 21   102.21     LegendNANA
09:00 14.0 9.5 74 2 22   102.27     LegendNANA
10:00 14.7 9.1 70 2 17   102.27     LegendNANA
11:00 14.7 8.8 68 2 17   102.31     LegendNANA
12:00 14.0 8.2 68 4 15   102.30     LegendNANA
13:00 14.3 8.9 70 6 15   102.27     LegendNANA
14:00 15.1 9.4 69 10 9   102.26     LegendNANA
15:00 14.8 8.6 66 11 8   102.23     LegendNANA
16:00 14.5 8.8 69 10 8   102.23     LegendNANA
17:00 13.8 9.1 73 8 12   102.25     LegendNANA
18:00 12.7 8.7 77 10 8   102.30     LegendNANA
19:00 11.7 7.3 74 13 7   102.35     LegendNANA
20:00 10.9 6.8 76 14 8   102.36     LegendNANA
21:00 10.7 6.5 75 15 10   102.33     LegendNANA
22:00 6.9 4.1 83 18 1   102.33     LegendNANA
23:00 7.0 5.0 87 31 3   102.35     LegendNANA

Notes on Data Quality.

Legend

  • E = Estimated
  • M = Missing
  • NA = Not Available
  • ‡ = Partner data that is not subject to review by the National Climate Archives
Date modified: